Location: Unspecified
(42.9300°N, 71.1866°W)
Time: 19:16:46
(UTC-04:00)

CZ-3 Stage 3 - Visible Passes

Search period start: 30 July 2014 00:00
Search period end: 09 August 2014 00:00
Orbit: 420 x 34832 km, 30.6° (Epoch: 30 July)

Date Brightness Start Highest point End Pass type
(mag) Time Alt. Az. Time Alt. Az. Time Alt. Az.
30 Jul 9.3 04:33:27 10° SSE 05:33:36 13° SE 06:03:52 10° SE visible
01 Aug 7.3 04:51:12 10° S 09:50:22 31° S 10:04:23 10° ESE visible
02 Aug 9.3 04:09:08 10° SSE 05:34:26 14° SE 06:09:06 10° SE visible
04 Aug 7.3 04:39:46 10° S 09:49:34 32° S 10:02:58 10° ESE visible
05 Aug 9.2 03:47:27 10° SSE 05:35:08 16° SE 06:11:57 10° ESE visible
07 Aug 7.2 04:29:00 10° S 09:48:39 34° S 10:01:27 10° ESE visible
08 Aug 9.1 03:27:17 10° SSE 05:35:42 18° SE 06:13:31 10° ESE visible
